アトラス彗星

C/2018 A3 ( ATLAS )

English version
Home page
Updated on June 25, 2018

---------------------------------------------------------------------

・ プロフィール

発見日 2018年1月10日
発見光度 18.7等
発見者 Asteroid Terrestrial-impact Last Alert System (ATLAS) search program

・ 写真集

・ 軌道要素

Epoch 2018 Dec. 28.0 TT = JDT 2458480.5
T 2019 Jan. 12.85613 TT                                 MPCW
q   3.2767761            (2000.0)            P               Q
z  +0.0019990      Peri.   86.42463     -0.24780011     +0.95551011
 +/-0.0000057      Node   194.27963     +0.40379306     +0.25197255
e   0.9934496      Incl.  139.56204     +0.88065105     +0.15333059
From 553 observations 2018 Jan. 10-May 25, mean residual 0".4.

・ 星図

・ 光度変化

        m1 = 8.0 + 5 logΔ + 10.0 log r

---------------------------------------------------------------------

軌道要素はM.P.E.C. 2018-K95に掲載されたものです。
星図はステラナビゲータ Ver.10 (アストロアーツ) で作成したものです。
光度グラフはComet for Windowsで作成したものです。

---------------------------------------------------------------------

Copyright(C) Seiichi Yoshida (comet@aerith.net). All rights reserved.